FW6908 Weather Reports


Display with metric or nautical units.
time (UTC)temp
F
wind
direction
speed
MPH
gust
MPH
rain 1hr
in
rain 24hr
in
rain mn
in
humidity
%
barometer
mb
20260902012022 82 142 3.0 7.0 0.00 0.00 0.00 48 1015.9
20260902011524 82 136 4.0 7.0 0.00 0.00 0.00 48 1015.8
20260902011022 82 157 2.0 5.0 0.00 0.00 0.00 48 1015.8
20260902010522 81 162 2.0 5.0 0.00 0.00 0.00 48 1015.7
20260902010031 81 209 1.0 3.0 0.00 0.00 0.00 50 1015.7
20260902005521 81 284 0.0 0.0 0.00 0.00 0.00 49 1015.8
20260902005021 81 304 0.0 0.0 0.00 0.00 0.00 51 1015.7
20260902004521 81 305 0.0 0.0 0.00 0.00 0.00 51 1015.7
20260902004020 80 325 0.0 0.0 0.00 0.00 0.00 53 1015.8
20260902003520 80 329 0.0 3.0 0.00 0.00 0.00 53 1015.7
20260902003019 80 331 1.0 3.0 0.00 0.00 0.00 53 1015.7
20260902002520 80 351 1.0 3.0 0.00 0.00 0.00 53 1015.7
20260902002019 80 5 0.0 1.0 0.00 0.00 0.00 53 1015.7
20260902001523 80 5 0.0 3.0 0.00 0.00 0.00 53 1015.7
20260902001017 81 9 1.0 4.0 0.00 0.00 0.00 52 1015.7
20260902000517 82 9 2.0 6.0 0.00 0.00 0.00 51 1015.7
20260902000021 82 113 1.0 7.0 0.00 0.00 0.00 49 1015.7
20260901235515 82 101 4.0 7.0 0.00 0.00 0.00 49 1015.7
20260901235016 82 101 3.0 7.0 0.00 0.00 0.00 49 1015.7
20260901234515 82 112 4.0 7.0 0.00 0.00 0.00 50 1015.7
20260901234015 82 108 3.0 8.0 0.00 0.00 0.00 50 1015.7
20260901233514 83 93 5.0 8.0 0.00 0.00 0.00 50 1015.7
20260901233014 83 64 4.0 8.0 0.00 0.00 0.00 50 1015.7
20260901232513 83 98 4.0 8.0 0.00 0.00 0.00 50 1015.8
20260901232013 83 103 5.0 9.0 0.00 0.00 0.00 50 1015.8
20260901231514 83 98 4.0 10.0 0.00 0.00 0.00 50 1015.8
20260901231012 83 107 6.0 10.0 0.00 0.00 0.00 50 1015.8
20260901230512 83 86 4.0 10.0 0.00 0.00 0.00 50 1015.9
20260901230013 83 90 6.0 10.0 0.00 0.00 0.00 50 1015.8
20260901225511 83 100 7.0 12.0 0.00 0.00 0.00 50 1015.9
20260901225011 83 95 7.0 14.0 0.00 0.00 0.00 50 1015.9
20260901224511 83 98 8.0 13.0 0.00 0.00 0.00 51 1015.9
20260901224011 83 82 6.0 13.0 0.00 0.00 0.00 51 1015.8
20260901223510 83 98 7.0 12.0 0.00 0.00 0.00 51 1015.9
20260901223010 83 61 6.0 11.0 0.00 0.00 0.00 52 1015.9
20260901222509 83 90 6.0 11.0 0.00 0.00 0.00 52 1015.9
20260901222009 83 38 4.0 11.0 0.00 0.00 0.00 52 1016.0
20260901221508 83 13 4.0 12.0 0.00 0.00 0.00 52 1016.1
20260901221008 83 64 5.0 14.0 0.00 0.00 0.00 51 1016.1
20260901220508 83 98 4.0 14.0 0.00 0.00 0.00 51 1016.0
20260901220012 83 62 4.0 13.0 0.00 0.00 0.00 51 1016.0
20260901215507 83 90 5.0 13.0 0.00 0.00 0.00 51 1016.0
20260901215006 83 59 5.0 12.0 0.00 0.00 0.00 51 1016.0
20260901214507 83 57 5.0 11.0 0.00 0.00 0.00 51 1016.1
20260901214006 83 45 4.0 11.0 0.00 0.00 0.00 51 1016.0
20260901213504 82 76 7.0 10.0 0.00 0.00 0.00 52 1015.9
20260901213003 82 42 4.0 9.0 0.00 0.00 0.00 52 1016.0
20260901212502 82 25 2.0 8.0 0.00 0.00 0.00 53 1016.0
20260901212001 82 74 2.0 6.0 0.00 0.00 0.00 53 1016.0
20260901211600 81 80 3.0 5.0 0.00 0.00 0.00 54 1016.0
20260901211059 81 5 3.0 5.0 0.00 0.00 0.00 54 1016.0
20260901210559 81 13 1.0 4.0 0.00 0.00 0.00 54 1016.0
20260901210058 81 13 2.0 5.0 0.00 0.00 0.00 54 1016.0
20260901205558 81 15 2.0 5.0 0.00 0.00 0.00 53 1016.0
20260901205101 81 35 3.0 6.0 0.00 0.00 0.00 53 1016.1
20260901204558 82 11 2.0 6.0 0.00 0.00 0.00 53 1016.1
20260901204059 82 57 1.0 6.0 0.00 0.00 0.00 53 1016.0
20260901203558 82 55 3.0 6.0 0.00 0.00 0.00 53 1016.0
20260901203056 82 34 4.0 8.0 0.00 0.00 0.00 52 1016.0
20260901202556 82 24 4.0 8.0 0.00 0.00 0.00 52 1016.0
20260901202056 82 5 3.0 6.0 0.00 0.00 0.00 52 1016.1
20260901201601 82 42 3.0 9.0 0.00 0.00 0.00 51 1016.0
20260901201056 82 53 5.0 9.0 0.00 0.00 0.00 52 1016.0
20260901200555 82 26 5.0 9.0 0.00 0.00 0.00 51 1016.1
20260901200055 82 27 5.0 10.0 0.00 0.00 0.00 51 1016.1
20260901195556 83 32 6.0 10.0 0.00 0.00 0.00 51 1016.1
20260901195057 83 14 6.0 10.0 0.00 0.00 0.00 50 1016.2
20260901194602 83 20 4.0 8.0 0.00 0.00 0.00 50 1016.2
20260901194054 83 5 3.0 5.0 0.00 0.00 0.00 50 1016.1
20260901193554 84 31 3.0 12.0 0.00 0.00 0.00 49 1016.2
20260901193104 84 81 4.0 12.0 0.00 0.00 0.00 49 1016.1
20260901192553 84 54 5.0 10.0 0.00 0.00 0.00 49 1016.2
20260901192054 84 13 5.0 12.0 0.00 0.00 0.00 49 1016.2
20260901191554 84 69 6.0 12.0 0.00 0.00 0.00 49 1016.2
20260901191055 84 59 5.0 12.0 0.00 0.00 0.00 49 1016.1
20260901190552 84 76 5.0 12.0 0.00 0.00 0.00 49 1016.1
20260901190052 84 46 5.0 11.0 0.00 0.00 0.00 49 1016.1
20260901185551 84 35 5.0 11.0 0.00 0.00 0.00 49 1016.0
20260901185051 84 55 6.0 12.0 0.00 0.00 0.00 49 1016.0
20260901184557 84 51 7.0 12.0 0.00 0.00 0.00 49 1015.9
20260901184053 84 37 4.0 11.0 0.00 0.00 0.00 49 1015.9
20260901183550 84 52 5.0 10.0 0.00 0.00 0.00 49 1015.9
20260901183050 84 46 5.0 10.0 0.00 0.00 0.00 48 1015.7
20260901182550 84 10 4.0 12.0 0.00 0.00 0.00 48 1015.7
20260901182050 84 65 6.0 12.0 0.00 0.00 0.00 48 1015.6
20260901181550 84 38 4.0 11.0 0.00 0.00 0.00 47 1015.6
20260901181049 85 39 6.0 11.0 0.00 0.00 0.00 47 1015.6
20260901180549 85 45 5.0 11.0 0.00 0.00 0.00 47 1015.6
20260901180049 85 42 6.0 10.0 0.00 0.00 0.00 47 1015.5
20260901175550 85 44 4.0 10.0 0.00 0.00 0.00 46 1015.4
20260901175049 86 53 4.0 12.0 0.00 0.00 0.00 46 1015.3
20260901174549 86 65 4.0 14.0 0.00 0.00 0.00 46 1015.3
20260901174049 86 41 7.0 14.0 0.00 0.00 0.00 45 1015.3
20260901173548 86 81 7.0 12.0 0.00 0.00 0.00 45 1015.2
20260901173048 86 118 5.0 13.0 0.00 0.00 0.00 45 1015.2
20260901172548 86 87 8.0 14.0 0.00 0.00 0.00 44 1015.1
20260901172048 86 106 7.0 14.0 0.00 0.00 0.00 44 1015.0
20260901171551 87 97 7.0 14.0 0.00 0.00 0.00 44 1015.2
20260901171047 87 88 6.0 11.0 0.00 0.00 0.00 44 1015.1
20260901170547 87 71 7.0 13.0 0.00 0.00 0.00 44 1015.1
20260901170148 87 60 8.0 13.0 0.00 0.00 0.00 44 1015.1
20260901165546 87 78 9.0 13.0 0.00 0.00 0.00 44 1015.0
20260901165046 87 97 5.0 13.0 0.00 0.00 0.00 44 1015.1
20260901164548 88 103 7.0 11.0 0.00 0.00 0.00 43 1015.1
20260901164045 88 96 5.0 12.0 0.00 0.00 0.00 43 1015.0
20260901163545 88 111 7.0 12.0 0.00 0.00 0.00 42 1014.9
20260901163045 89 104 4.0 12.0 0.00 0.00 0.00 42 1014.9
20260901162544 89 83 6.0 11.0 0.00 0.00 0.00 41 1014.8
20260901162044 89 126 5.0 11.0 0.00 0.00 0.00 41 1014.8
20260901161546 89 109 4.0 13.0 0.00 0.00 0.00 40 1014.8
20260901161046 90 94 5.0 13.0 0.00 0.00 0.00 39 1014.7
20260901160545 91 102 3.0 15.0 0.00 0.00 0.00 39 1014.7
20260901160050 91 88 7.0 15.0 0.00 0.00 0.00 37 1014.6
20260901155543 91 86 4.0 15.0 0.00 0.00 0.00 37 1014.6
20260901155043 91 68 7.0 16.0 0.00 0.00 0.00 36 1014.6
20260901154542 91 90 9.0 16.0 0.00 0.00 0.00 36 1014.6
20260901154039 92 100 6.0 16.0 0.00 0.00 0.00 36 1014.5
20260901153538 92 38 7.0 17.0 0.00 0.00 0.00 36 1014.5
20260901153038 92 5 6.0 17.0 0.00 0.00 0.00 36 1014.5
20260901152538 92 52 8.0 17.0 0.00 0.00 0.00 36 1014.4
20260901152041 92 83 8.0 18.0 0.00 0.00 0.00 36 1014.4
20260901151537 92 117 9.0 18.0 0.00 0.00 0.00 36 1014.4
20260901151038 92 67 10.0 18.0 0.00 0.00 0.00 36 1014.5
20260901150537 92 69 11.0 19.0 0.00 0.00 0.00 36 1014.5
20260901150054 92 94 12.0 19.0 0.00 0.00 0.00 36 1014.4
20260901145535 92 51 9.0 19.0 0.00 0.00 0.00 36 1014.4
20260901145035 92 109 14.0 19.0 0.00 0.00 0.00 36 1014.3
20260901144534 92 45 11.0 17.0 0.00 0.00 0.00 36 1014.3
20260901144034 92 74 10.0 18.0 0.00 0.00 0.00 36 1014.5
20260901143530 92 56 12.0 18.0 0.00 0.00 0.00 37 1014.6
20260901143030 92 80 12.0 18.0 0.00 0.00 0.00 36 1014.5
20260901142530 93 112 11.0 20.0 0.00 0.00 0.00 36 1014.4
20260901142029 92 74 12.0 20.0 0.00 0.00 0.00 36 1014.4
20260901141528 92 82 12.0 20.0 0.00 0.00 0.00 36 1014.4
20260901141027 92 82 13.0 20.0 0.00 0.00 0.00 36 1014.5
20260901140526 92 65 11.0 20.0 0.00 0.00 0.00 36 1014.5
20260901140026 92 113 9.0 20.0 0.00 0.00 0.00 36 1014.6
20260901135526 93 82 10.0 20.0 0.00 0.00 0.00 36 1014.7
20260901135029 93 76 13.0 22.0 0.00 0.00 0.00 35 1014.7
20260901134530 93 83 10.0 22.0 0.00 0.00 0.00 36 1014.6
20260901134025 93 98 15.0 20.0 0.00 0.00 0.00 36 1014.7
20260901133525 93 105 11.0 21.0 0.00 0.00 0.00 36 1014.6
20260901133021 93 61 14.0 21.0 0.00 0.00 0.00 36 1014.6
20260901132520 93 84 11.0 22.0 0.00 0.00 0.00 35 1014.7
20260901132021 93 90 13.0 22.0 0.00 0.00 0.00 35 1014.5
20260901131522 93 55 10.0 20.0 0.00 0.00 0.00 35 1014.6
20260901131016 94 89 12.0 23.0 0.00 0.00 0.00 35 1014.6
20260901130515 93 79 14.0 23.0 0.00 0.00 0.00 35 1014.6
20260901130014 93 106 11.0 22.0 0.00 0.00 0.00 35 1014.6
20260901125512 93 120 9.0 18.0 0.00 0.00 0.00 35 1014.6
20260901125011 93 78 10.0 20.0 0.00 0.00 0.00 35 1014.7
20260901124510 93 99 13.0 20.0 0.00 0.00 0.00 35 1014.7
20260901124009 93 128 10.0 19.0 0.00 0.00 0.00 35 1014.8
20260901123511 94 90 11.0 21.0 0.00 0.00 0.00 35 1014.9
20260901123015 93 109 10.0 21.0 0.00 0.00 0.00 34 1014.9
20260901122505 94 105 11.0 18.0 0.00 0.00 0.00 34 1015.1
20260901122003 93 86 9.0 18.0 0.00 0.00 0.00 35 1015.1
20260901121502 94 113 9.0 19.0 0.00 0.00 0.00 35 1015.1
20260901121101 93 71 9.0 21.0 0.00 0.00 0.00 34 1015.3
20260901120604 93 73 13.0 22.0 0.00 0.00 0.00 34 1015.1
20260901120113 93 96 9.0 21.0 0.00 0.00 0.00 34 1015.2
20260901115604 93 119 12.0 21.0 0.00 0.00 0.00 34 1015.3
20260901115100 93 91 11.0 18.0 0.00 0.00 0.00 34 1015.3
20260901114559 94 103 8.0 21.0 0.00 0.00 0.00 33 1015.3
20260901114057 93 48 12.0 21.0 0.00 0.00 0.00 33 1015.2
20260901113555 93 96 8.0 20.0 0.00 0.00 0.00 34 1015.3
20260901113059 93 74 13.0 22.0 0.00 0.00 0.00 34 1015.3
20260901112553 93 107 10.0 25.0 0.00 0.00 0.00 34 1015.2
20260901112051 93 58 13.0 20.0 0.00 0.00 0.00 34 1015.2
20260901111550 93 34 14.0 20.0 0.00 0.00 0.00 34 1015.2
20260901111047 93 70 13.0 23.0 0.00 0.00 0.00 34 1015.3
20260901110548 93 61 14.0 23.0 0.00 0.00 0.00 34 1015.3
20260901110045 93 44 9.0 18.0 0.00 0.00 0.00 34 1015.3
20260901105543 93 60 9.0 20.0 0.00 0.00 0.00 34 1015.3
20260901105045 93 71 12.0 20.0 0.00 0.00 0.00 33 1015.4
20260901104551 93 81 10.0 22.0 0.00 0.00 0.00 33 1015.5
20260901104042 92 60 13.0 22.0 0.00 0.00 0.00 33 1015.4
20260901103540 92 67 10.0 19.0 0.00 0.00 0.00 33 1015.6
20260901103041 92 117 10.0 16.0 0.00 0.00 0.00 34 1015.6
20260901102540 92 55 10.0 20.0 0.00 0.00 0.00 33 1015.7
20260901102041 92 79 10.0 22.0 0.00 0.00 0.00 33 1015.7
20260901101540 92 74 10.0 22.0 0.00 0.00 0.00 34 1015.9
20260901101039 92 80 14.0 22.0 0.00 0.00 0.00 33 1015.8
20260901100539 92 74 6.0 17.0 0.00 0.00 0.00 34 1015.8
20260901100044 92 90 8.0 18.0 0.00 0.00 0.00 34 1015.6
20260901095537 92 112 13.0 18.0 0.00 0.00 0.00 34 1015.6
20260901095037 92 66 8.0 24.0 0.00 0.00 0.00 34 1015.8
20260901094537 91 84 17.0 24.0 0.00 0.00 0.00 33 1015.8
20260901094038 91 135 11.0 19.0 0.00 0.00 0.00 33 1015.8
20260901093535 91 32 8.0 21.0 0.00 0.00 0.00 34 1015.8
20260901093034 91 61 10.0 18.0 0.00 0.00 0.00 35 1015.8
20260901092534 92 91 10.0 20.0 0.00 0.00 0.00 35 1015.7
20260901092034 92 53 9.0 20.0 0.00 0.00 0.00 35 1015.8
20260901091534 92 61 5.0 16.0 0.00 0.00 0.00 36 1015.6
20260901091031 91 68 4.0 17.0 0.00 0.00 0.00 36 1015.7
20260901090531 91 65 7.0 16.0 0.00 0.00 0.00 36 1015.7
20260901090027 90 94 9.0 20.0 0.00 0.00 0.00 37 1015.6
20260901085526 90 86 11.0 23.0 0.00 0.00 0.00 37 1015.6
20260901085025 90 78 13.0 23.0 0.00 0.00 0.00 36 1015.6
20260901084541 90 97 9.0 19.0 0.00 0.00 0.00 37 1015.8
20260901084024 90 59 7.0 20.0 0.00 0.00 0.00 37 1015.8
20260901083521 90 50 11.0 20.0 0.00 0.00 0.00 37 1015.7
20260901083022 90 28 10.0 17.0 0.00 0.00 0.00 37 1015.7
20260901082519 90 95 9.0 19.0 0.00 0.00 0.00 38 1015.6
20260901082017 89 92 8.0 21.0 0.00 0.00 0.00 39 1015.6
20260901081522 89 46 10.0 21.0 0.00 0.00 0.00 39 1015.6
20260901081015 89 117 13.0 21.0 0.00 0.00 0.00 39 1015.7
20260901080514 89 58 11.0 21.0 0.00 0.00 0.00 39 1015.7
20260901080018 89 87 13.0 19.0 0.00 0.00 0.00 39 1015.7
20260901075512 88 80 10.0 17.0 0.00 0.00 0.00 40 1015.6
20260901075011 88 96 7.0 16.0 0.00 0.00 0.00 41 1015.6
20260901074509 87 113 9.0 17.0 0.00 0.00 0.00 42 1015.6
20260901074010 87 90 8.0 17.0 0.00 0.00 0.00 44 1015.6
20260901073506 86 130 6.0 15.0 0.00 0.00 0.00 45 1015.5
20260901073005 86 128 9.0 15.0 0.00 0.00 0.00 45 1015.6
20260901072503 86 107 10.0 17.0 0.00 0.00 0.00 45 1015.4
20260901072001 86 59 11.0 17.0 0.00 0.00 0.00 45 1015.5
20260901071601 86 124 8.0 12.0 0.00 0.00 0.00 45 1015.4
20260901071100 86 149 4.0 12.0 0.00 0.00 0.00 46 1015.5
20260901070557 85 99 7.0 11.0 0.00 0.00 0.00 45 1015.3
20260901070057 85 32 5.0 10.0 0.00 0.00 0.00 46 1015.4
20260901065558 85 76 6.0 12.0 0.00 0.00 0.00 47 1015.4
20260901065053 85 106 7.0 12.0 0.00 0.00 0.00 47 1015.5
20260901064552 85 121 0.0 8.0 0.00 0.00 0.00 48 1015.4
20260901064051 84 60 3.0 8.0 0.00 0.00 0.00 48 1015.5
20260901063548 84 119 3.0 8.0 0.00 0.00 0.00 48 1015.5
20260901063106 83 94 2.0 4.0 0.00 0.00 0.00 49 1015.6
20260901062545 82 285 0.0 3.0 0.00 0.00 0.00 50 1015.7
20260901062044 82 289 0.0 3.0 0.00 0.00 0.00 50 1015.6
20260901061547 82 98 0.0 4.0 0.00 0.00 0.00 50 1015.5
20260901061042 82 78 1.0 4.0 0.00 0.00 0.00 51 1015.7
20260901060542 81 83 1.0 4.0 0.00 0.00 0.00 51 1015.6
20260901060040 81 287 0.0 1.0 0.00 0.00 0.00 52 1015.7
20260901055542 81 290 0.0 1.0 0.00 0.00 0.00 51 1015.7
20260901055039 80 290 0.0 1.0 0.00 0.00 0.00 52 1015.9
20260901054538 80 295 0.0 2.0 0.00 0.00 0.00 52 1015.9
20260901054037 79 294 0.0 3.0 0.00 0.00 0.00 53 1015.9
20260901053535 79 326 1.0 5.0 0.00 0.00 0.00 53 1015.8
20260901053041 79 350 2.0 5.0 0.00 0.00 0.00 54 1015.8
20260901052532 78 360 3.0 5.0 0.00 0.00 0.00 54 1015.8
20260901052031 78 23 1.0 4.0 0.00 0.00 0.00 54 1015.8
20260901051530 77 342 2.0 4.0 0.00 0.00 0.00 55 1015.8
20260901051030 77 360 2.0 6.0 0.00 0.00 0.00 55 1015.8
20260901050529 77 360 4.0 6.0 0.00 0.00 0.00 53 1015.8
20260901050027 77 33 0.0 4.0 0.00 0.00 0.00 54 1015.7
20260901045527 76 18 1.0 4.0 0.00 0.00 0.00 54 1015.7
20260901045024 76 30 1.0 4.0 0.00 0.00 0.00 54 1015.6
20260901044530 76 72 0.0 3.0 0.00 0.00 0.00 55 1015.4
20260901044021 75 57 2.0 3.0 0.00 0.00 0.00 56 1015.5
20260901043519 74 35 2.0 4.0 0.00 0.00 0.00 57 1015.5
20260901043021 74 5 2.0 4.0 0.00 0.00 0.00 57 1015.5
20260901042516 74 344 2.0 4.0 0.00 0.00 0.00 56 1015.4
20260901042019 75 45 0.0 4.0 0.00 0.00 0.00 56 1015.3
20260901041516 74 40 1.0 6.0 0.00 0.00 0.00 56 1015.2
20260901041014 74 51 3.0 6.0 0.00 0.00 0.00 56 1015.2
20260901040513 74 15 4.0 6.0 0.00 0.00 0.00 56 1015.2
20260901040013 74 23 3.0 6.0 0.00 0.00 0.00 55 1015.1
20260901035513 74 15 1.0 5.0 0.00 0.00 0.00 55 1015.1
20260901035012 74 11 2.0 4.0 0.00 0.00 0.00 55 1015.1
20260901034518 74 49 1.0 6.0 0.00 0.00 0.00 55 1015.0
20260901034011 73 22 1.0 6.0 0.00 0.00 0.00 56 1015.0
20260901033511 74 15 4.0 8.0 0.00 0.00 0.00 55 1015.0
20260901033009 74 11 1.0 8.0 0.00 0.00 0.00 55 1014.9
20260901032509 75 30 3.0 8.0 0.00 0.00 0.00 54 1014.9
20260901032008 75 92 0.0 4.0 0.00 0.00 0.00 53 1014.9
20260901031509 75 103 1.0 4.0 0.00 0.00 0.00 53 1014.9
20260901031008 75 74 1.0 4.0 0.00 0.00 0.00 53 1014.9
20260901030507 75 46 1.0 4.0 0.00 0.00 0.00 53 1015.0
20260901030007 75 43 2.0 6.0 0.00 0.00 0.00 53 1015.0
20260901025508 75 15 4.0 6.0 0.00 0.00 0.00 53 1015.1
20260901025007 75 38 3.0 5.0 0.00 0.00 0.00 53 1014.9
20260901024508 76 58 0.0 6.0 0.00 0.00 0.00 52 1014.9
20260901024009 75 43 3.0 6.0 0.00 0.00 0.00 53 1014.8
20260901023505 75 35 1.0 5.0 0.00 0.00 0.00 52 1014.8
20260901023005 76 20 1.0 6.0 0.00 0.00 0.00 52 1014.9
20260901022505 76 59 1.0 6.0 0.00 0.00 0.00 51 1014.8
20260901022005 77 57 0.0 5.0 0.00 0.00 0.00 50 1014.8
20260901021505 76 53 1.0 5.0 0.00 0.00 0.00 50 1014.8
20260901021005 76 97 3.0 5.0 0.00 0.00 0.00 51 1014.8
20260901020505 76 56 1.0 5.0 0.00 0.00 0.00 51 1014.8
20260901020005 76 59 0.0 5.0 0.00 0.00 0.00 52 1014.7
20260901015508 75 33 1.0 6.0 0.00 0.00 0.00 52 1014.8
20260901015005 75 13 4.0 6.0 0.00 0.00 0.00 52 1014.8
20260901014503 75 18 2.0 5.0 0.00 0.00 0.00 52 1014.8
20260901014004 75 17 2.0 4.0 0.00 0.00 0.00 52 1014.9
20260901013501 76 26 2.0 4.0 0.00 0.00 0.00 52 1014.7
20260901013001 75 32 1.0 3.0 0.00 0.00 0.00 52 1014.8
20260901012501 75 50 0.0 5.0 0.00 0.00 0.00 52 1014.9